Preview of NWS' New Version of Forecast
This preview is not operational and should not be used for support decisions.

Regional Weather Roundup (RWR)

Issued by National Weather Service (NWS)

                            
000
ASUS43 KTOP 251359
RWRKS 

WEATHER ROUNDUP FOR KANSAS
NATIONAL WEATHER SERVICE GOODLAND KS
900 AM CDT TUE JUN 25 2019

NOTE:  "FAIR" INDICATES FEW OR NO CLOUDS BELOW 12,000 FEET WITH NO
SIGNIFICANT WEATHER AND/OR OBSTRUCTIONS TO VISIBILITY.

KSZ001>006-013>018-027>032-041>047-251500-
NORTHWEST KANSAS
  
CITY           SKY/WX    TMP DP  RH WIND       PRES   REMARKS
GOODLAND       SUNNY     69  56  62 SW10      29.95S                  
HAYS           MOSUNNY   70  61  73 VRB3      29.94R                  
HILL CITY      SUNNY     75  60  59 S9        29.93S                  
RUSSELL        LGT RAIN  74  62  66 SW12      29.95R                  
$$

KSZ061>065-074>080-084>089-251500-
SOUTHWEST KANSAS
  
CITY           SKY/WX    TMP DP  RH WIND       PRES   REMARKS
DODGE CITY     MOSUNNY   69  64  84 SW10      29.98R                  
ELKHART        SUNNY     73  68  83 S16       29.98S                  
GARDEN CITY    SUNNY     69  63  81 S12       29.96R                  
GREAT BEND     SUNNY     72  65  78 W10       29.97R                  
$$

KSZ066>073-081>083-090>101-251500-
SOUTHEAST KANSAS
  
CITY           SKY/WX    TMP DP  RH WIND       PRES   REMARKS
CHANUTE        SUNNY     76  68  76 SW12      29.99R                  
COFFEYVILLE    SUNNY     74  69  85 S8        29.97R                  
HUTCHINSON     SUNNY     74  64  71 SW8       29.95R                  
MEDICINE LODGE   N/A     74  67  78 S7        29.96S                  
NEWTON         SUNNY     73  66  78 SW12      29.97R                  
PARSONS        SUNNY     75  70  84 S7        30.00R                  
WICHITA INTL   MOSUNNY   74  66  76 SW10      29.96R                  
WICHITA JABRA  SUNNY     75  66  73 SW13      29.96R                  
WICHITA MCCONL SUNNY     73  66  76 S13       29.96R                  
WINFIELD       SUNNY     75  69  81 S7        29.98R                  
$$

KSZ007>012-019>026-033>040-048>060-102>105-251500-
NORTHEAST KANSAS
  
CITY           SKY/WX    TMP DP  RH WIND       PRES   REMARKS
CONCORDIA      SUNNY     79  60  52 SW8       29.93R                  
EMPORIA        SUNNY     76  68  76 SW9       29.97R                  
MANHATTAN      SUNNY     74  62  66 SW6       29.95R                  
OLATHE IND     SUNNY     74  63  68 SW13      29.99R                  
OLATHE EXE     SUNNY     72  64  76 SW8       29.98R                  
SALINA         SUNNY     75  60  59 CALM      29.97R                  
TOPEKA BILLARD SUNNY     74  63  68 VRB5      29.96R                  
TOPEKA FORBES  SUNNY     74  63  68 VRB5      29.98R                  
$$